Terug naar catalogus

METEOR M2

ActiefWeerSSO
NORAD 40069·PAYLOAD·🇷🇺 Russia

Gelanceerd Jul 8, 2014 vanaf Baikonur Cosmodrome

Loading…

Volgende Passages (komende 24 uur)

TLE

VersSource: Space-Track

Epoch: Sep 14, 2026, 14:39 UTC

1 40069U 14037A   26257.61065259  .00000186  00000-0  10413-3 0  9997
2 40069  98.5229 230.2282 0006497 128.4352 231.7410 14.21483812632021

Volg METEOR M2 in realtime met AllMySat

Download on the App Store